Clear Lake, IA

6:34 AM CST on December 08, 2016 (GMT -0600)
Mason City Municipal

Weather History for KMCW - February, 2013

Change the Weather History Date:

Sunday, February 3, 2013

  Actual Average Record
Temperature  
Mean Temperature 16 °F 17 °F  
Max Temperature 23 °F 26 °F 53 °F (1934)
Min Temperature 8 °F 8 °F -28 °F (1996)
Degree Days  
Heating Degree Days 49 48  
Month to date heating degree days 165 144  
Since 1 July heating degree days 4487 4755  
Cooling Degree Days 0 0  
Month to date cooling degree days 0 0  
Year to date cooling degree days 0 0  
Moisture  
Dew Point 9 °F    
Average Humidity 76    
Maximum Humidity 84    
Minimum Humidity 67    
Precipitation  
Precipitation T in 0.04 in 0.40 in (1919)
Month to date precipitation 0.01 0.10  
Year to date precipitation 0.48 0.92  
Snow  
Snow T in 0.30 in 7.00 in (1936)
Month to date snowfall 0.8 1.0  
Since 1 July snowfall 14.0 25.8  
Snow Depth 0.00 in    
Sea Level Pressure  
Sea Level Pressure 30.04 in    
Wind  
Wind Speed 13 mph (WNW)    
Max Wind Speed 32 mph    
Max Gust Speed 43 mph    
Visibility 7 miles    
Events Snow    
T = Trace of Precipitation, MM = Missing Value Source: NWS Daily Summary

Daily Weather History Graph

Daily Weather History Graph

Search for Another Location

Airport or City:

Trip Planner

Search our weather history database for the weather conditions in past years. The results will help you decide how hot, cold, wet, or windy it might be!

Date:

Astronomy

Feb. 03, 2013 Rise Set
Actual Time 7:26 AM CST 5:28 PM CST
Civil Twilight 6:56 AM CST 5:58 PM CST
Nautical Twilight 6:22 AM CST 6:32 PM CST
Astronomical Twilight 5:49 AM CST 7:06 PM CST
Moon 12:54 AM CST (2/3) 11:05 AM CST (2/3)
Length of Visible Light 11h 02m
Length of Day
10h 02m
Waning Gibbous, 48% of the Moon is Illuminated
Feb 3
Waning Gibbous
Feb 10
New
Feb 17
First Quarter
Feb 25
Full
Mar 4
Last Quarter

Hourly Weather History & Observations

Time (CST) Temp. Windchill Dew Point Humidity Pressure Visibility Wind Dir Wind Speed Gust Speed Precip Events Conditions
12:53 AM 19.9 °F 2.5 °F 15.1 °F 81% 30.01 in 5.0 mi NW 25.3 mph 36.8 mph 0.00 in   Haze
12:59 AM 19.4 °F 2.8 °F 15.8 °F 86% 29.96 in 2.5 mi NW 21.9 mph - 0.00 in   Overcast
1:15 AM 19.4 °F 3.2 °F 14.0 °F 80% 29.97 in 5.0 mi NW 20.7 mph 28.8 mph 0.00 in   Haze
1:53 AM 18.0 °F -1.4 °F 12.0 °F 78% 30.04 in 6.0 mi NW 29.9 mph 34.5 mph 0.00 in   Haze
2:23 AM 17.6 °F -0.6 °F 10.4 °F 73% 30.00 in 2.0 mi NW 25.3 mph 34.5 mph 0.00 in Snow Light Snow
2:36 AM 15.8 °F -4.7 °F 10.4 °F 79% 30.01 in 1.8 mi NW 31.1 mph 39.1 mph 0.00 in Snow Light Snow
2:49 AM 15.8 °F -3.7 °F 10.4 °F 79% 30.01 in 2.5 mi NW 27.6 mph 35.7 mph 0.00 in Snow Light Snow
2:51 AM 15.8 °F -2.7 °F 10.4 °F 79% 30.01 in 3.0 mi NW 24.2 mph 35.7 mph 0.00 in Snow Light Snow
2:53 AM 16.0 °F -3.5 °F 10.0 °F 77% 30.07 in 3.0 mi NW 27.6 mph 34.5 mph 0.00 in Snow Light Snow
2:59 AM 15.8 °F -4.7 °F 8.6 °F 73% 30.01 in 1.8 mi NW 31.1 mph 38.0 mph 0.00 in Snow Light Snow
3:10 AM 15.8 °F -2.7 °F 8.6 °F 73% 30.01 in 2.0 mi NW 24.2 mph 33.4 mph 0.00 in Snow Light Snow
3:53 AM 14.0 °F -5.8 °F 8.1 °F 77% 30.09 in 2.5 mi NW 26.5 mph 35.7 mph 0.00 in Snow Light Snow
4:06 AM 14.0 °F -5.5 °F 6.8 °F 73% 30.03 in 3.0 mi NW 25.3 mph 34.5 mph 0.00 in Snow Light Snow
4:16 AM 12.2 °F -7.1 °F 6.8 °F 79% 30.03 in 3.0 mi NW 23.0 mph - 0.00 in Snow Light Snow
4:20 AM 12.2 °F -5.3 °F 8.6 °F 85% 30.03 in 1.8 mi NW 18.4 mph 28.8 mph 0.00 in Snow Light Snow
4:32 AM 12.2 °F -6.7 °F 6.8 °F 79% 30.03 in 3.0 mi NW 21.9 mph 27.6 mph 0.00 in Snow Light Snow
4:53 AM 12.0 °F -7.3 °F 6.1 °F 77% 30.11 in 6.0 mi NW 23.0 mph 29.9 mph 0.00 in   Overcast
5:53 AM 10.9 °F -5.9 °F 5.0 °F 77% 30.12 in 7.0 mi NW 16.1 mph - 0.00 in   Overcast
6:53 AM 9.0 °F -9.0 °F 3.9 °F 80% 30.14 in 6.0 mi WNW 17.3 mph 27.6 mph 0.00 in   Haze
7:26 AM 8.6 °F -9.5 °F 1.4 °F 73% 30.08 in 10.0 mi NW 17.3 mph - N/A   Partly Cloudy
7:53 AM 8.1 °F -8.4 °F 1.9 °F 76% 30.14 in 10.0 mi NW 13.8 mph - N/A   Clear
8:53 AM 10.9 °F -5.9 °F 3.0 °F 70% 30.15 in 10.0 mi WNW 16.1 mph - N/A   Mostly Cloudy
9:53 AM 12.9 °F -0.9 °F 3.9 °F 67% 30.15 in 10.0 mi WNW 11.5 mph - N/A   Overcast
10:53 AM 14.0 °F -1.4 °F 6.1 °F 71% 30.14 in 10.0 mi NW 15.0 mph - N/A   Overcast
11:53 AM 16.0 °F 4.4 °F 8.1 °F 71% 30.13 in 10.0 mi West 9.2 mph - N/A   Overcast
12:53 PM 16.0 °F 6.3 °F 8.1 °F 71% 30.12 in 10.0 mi West 6.9 mph - N/A   Overcast
1:53 PM 17.1 °F 11.7 °F 9.0 °F 71% 30.07 in 10.0 mi SW 3.5 mph - N/A   Overcast
2:53 PM 19.0 °F 12.3 °F 10.9 °F 71% 30.05 in 10.0 mi SSW 4.6 mph - N/A   Overcast
3:53 PM 21.0 °F 14.6 °F 12.0 °F 68% 30.03 in 10.0 mi SSW 4.6 mph - N/A   Mostly Cloudy
4:53 PM 21.0 °F 13.4 °F 12.9 °F 71% 30.01 in 10.0 mi South 5.8 mph - N/A   Overcast
5:53 PM 19.9 °F 13.4 °F 14.0 °F 78% 30.00 in 10.0 mi ESE 4.6 mph - N/A   Mostly Cloudy
6:53 PM 19.9 °F 12.1 °F 12.9 °F 74% 29.99 in 10.0 mi ESE 5.8 mph - N/A   Overcast
7:53 PM 19.0 °F 9.0 °F 12.9 °F 77% 29.97 in 10.0 mi SE 8.1 mph - N/A   Overcast
8:53 PM 19.9 °F 8.6 °F 12.9 °F 74% 29.94 in 10.0 mi ESE 10.4 mph - N/A   Overcast
9:53 PM 19.0 °F 8.2 °F 14.0 °F 81% 29.92 in 10.0 mi East 9.2 mph - N/A   Overcast
10:53 PM 19.9 °F 9.3 °F 14.0 °F 78% 29.89 in 10.0 mi East 9.2 mph - N/A   Overcast
11:53 PM 19.9 °F 9.3 °F 14.0 °F 78% 29.86 in 10.0 mi East 9.2 mph - N/A   Overcast